Flag for France Weather past 2 weeks in Marseille, France

Now
54 °F

Clear.


Feels Like: 48 °F
Forecast: 55 / 60 °F
Wind: 21 mph from Northwest

Location: Marseille / Marignane


UV Index: 0 (Low)

Visibility: N/A


Pressure: 29.62 "Hg

Humidity: 63%

Dew point: 41 °F

Location of MarseilleLocation

Historic Weather in Marseille

°F

Marseille temperature yesterday

Maximum temperature yesterday: 70 °F (at 3:00 PM)
Minimum temperature yesterday: 50 °F (at 6:00 AM)
Average temperature yesterday: 61 °F

Past Weeks' High & Low Weather Summary

 TemperatureHumidityPressure
High75 °F (Apr 13, 4:30 PM)94% (Apr 8, 1:30 AM)30.18 "Hg (Apr 8, 1:30 AM)
Low43 °F (Apr 16, 6:00 AM)23% (Apr 14, 7:30 PM)29.56 "Hg (Apr 4, 3:00 AM)
Average60 °F61%29.98 "Hg
* Reported Apr 4 3:00 AM — Apr 19 3:00 AM, Marseille, Weather by CustomWeather, © 2014

Note: Actual official high and low records may vary slightly from our data, if they occured in-between our weather recording intervals... More about our weather records

Advertising

Historic Weather Conditions — Data for Previous 24 hours

 ConditionsComfort  
Time TempWeatherWind HumidityBarometerVisibility
3:00 AM
Apr 19
54 °FClear.24 mph63%29.65 "HgN/A
2:30 AM55 °FClear.29 mph55%29.65 "HgN/A
2:00 AM55 °FClear.25 mph59%29.68 "HgN/A
1:30 AM55 °FClear.20 mph55%29.68 "HgN/A
12:30 AM57 °FClear.23 mph63%29.68 "Hg10 mi
12:00 AM59 °FClear.21 mph55%29.68 "Hg10 mi
11:00 PM
Apr 18
63 °FClear.22 mph42%29.68 "Hg10 mi
10:00 PM64 °FClear.18 mph40%29.71 "Hg10 mi
9:30 PM63 °FClear.15 mph45%29.71 "Hg10 mi
9:00 PM66 °FSunny.18 mph40%29.71 "Hg10 mi
8:30 PM66 °FSunny.13 mph40%29.68 "Hg10 mi
8:00 PM66 °FSunny.13 mph37%29.68 "Hg10 mi
7:30 PM68 °FSunny.15 mph35%29.71 "Hg10 mi
7:00 PM70 °FSunny.14 mph31%29.71 "Hg10 mi
6:30 PM68 °FSunny.16 mph35%29.71 "Hg10 mi
6:00 PM68 °FSunny.14 mph38%29.71 "Hg10 mi
5:30 PM68 °FSunny.15 mph33%29.74 "Hg10 mi
5:00 PM68 °FSunny.17 mph33%29.74 "Hg10 mi
4:30 PM68 °FSunny.15 mph33%29.74 "Hg10 mi
4:00 PM70 °FSunny.17 mph29%29.77 "Hg10 mi
3:30 PM70 °FSunny.20 mph27%29.77 "Hg10 mi
3:00 PM70 °FSunny.14 mph27%29.80 "Hg10 mi
2:30 PM68 °FSunny.16 mph30%29.80 "Hg10 mi
2:00 PM68 °FSunny.16 mph38%29.80 "Hg10 mi
1:30 PM68 °FSunny.13 mph38%29.83 "Hg10 mi
1:00 PM66 °FSunny.14 mph37%29.83 "Hg10 mi
12:30 PM66 °FPassing clouds.15 mph40%29.83 "HgN/A
12:00 PM63 °FPassing clouds.8 mph52%29.83 "HgN/A
11:30 AM61 °FPassing clouds.8 mph55%29.86 "HgN/A
11:00 AM57 °FSunny.9 mph67%29.86 "Hg10 mi
10:30 AM57 °FSunny.7 mph72%29.86 "Hg10 mi
10:00 AM57 °FSunny.8 mph72%29.89 "Hg10 mi
9:30 AM55 °FSunny.2 mph82%29.89 "Hg10 mi
9:00 AM55 °FPassing clouds.3 mph77%29.89 "HgN/A
8:30 AM54 °FSunny.7 mph82%29.89 "Hg10 mi
8:00 AM52 °FScattered clouds.5 mph88%29.89 "HgN/A
7:30 AM50 °FPassing clouds.7 mph88%29.89 "HgN/A
7:00 AM52 °FPassing clouds.No wind88%29.89 "HgN/A
6:30 AM52 °FPassing clouds.1 mph88%29.89 "HgN/A
6:00 AM50 °FPassing clouds.2 mph94%29.89 "HgN/A
5:30 AM52 °FPassing clouds.3 mph88%29.89 "HgN/A
5:00 AM52 °FPassing clouds.2 mph94%29.92 "HgN/A
4:30 AM52 °FPassing clouds.5 mph88%29.92 "HgN/A
4:00 AM54 °FPassing clouds.5 mph94%29.92 "HgN/A
Weather by CustomWeather, © 2014

See weather overview